Whitehorse, Yukon Territory

9:00 PM PDT on August 20, 2017 (GMT -0700)
Whitehorse

Weather History for CYXY - December, 2012

Change the Weather History Date:

Friday, December 28, 2012

  Actual Average Record
Temperature  
Mean Temperature -4 °F -  
Max Temperature 4 °F 6 °F 39 °F (1999)
Min Temperature -11 °F -10 °F -34 °F (1998)
Degree Days  
Heating Degree Days 68    
Moisture  
Dew Point -7 °F    
Average Humidity 73    
Maximum Humidity 78    
Minimum Humidity 61    
Precipitation  
Precipitation 0.00 in 0.02 in - ()
Sea Level Pressure  
Sea Level Pressure 29.91 in    
Wind  
Wind Speed 17 mph ()    
Max Wind Speed 32 mph    
Max Gust Speed 39 mph    
Visibility 15.6 miles    
Events Snow    
Averages and records for this station are not official NWS values.
T = Trace of Precipitation, MM = Missing Value Source: Averaged Metar Reports

Daily Weather History Graph

Daily Weather History Graph

Search for Another Location

Airport or City:

Trip Planner

Search our weather history database for the weather conditions in past years. The results will help you decide how hot, cold, wet, or windy it might be!

Date:

Astronomy

Dec. 28, 2012 Rise Set
Actual Time 10:10 AM PST 3:53 PM PST
Civil Twilight 9:10 AM PST 4:53 PM PST
Nautical Twilight 8:12 AM PST 5:51 PM PST
Astronomical Twilight 7:20 AM PST 6:44 PM PST
Moon 5:00 PM PST (12/28) 9:49 AM PST (12/28)
Length of Visible Light 7h 42m
Length of Day
5h 43m
Full, 100% of the Moon is Illuminated
Dec 28
Full
Jan 4
Last Quarter
Jan 11
New
Jan 18
First Quarter
Jan 26
Full

Hourly Weather History & Observations

Time (PST) Temp. Windchill Dew Point Humidity Pressure Visibility Wind Dir Wind Speed Gust Speed Precip Events Conditions
12:00 AM -4.0 °F -31.6 °F -9.4 °F 78% 29.83 in 15.0 mi South 31.1 mph - N/A Snow Low Drifting Snow
1:00 AM -4.0 °F -30.4 °F -11.2 °F 71% 29.84 in 15.0 mi South 27.6 mph 34.5 mph N/A Snow Low Drifting Snow
2:00 AM -2.2 °F -29.6 °F -9.4 °F 71% 29.84 in 15.0 mi South 32.2 mph 39.1 mph N/A Snow Low Drifting Snow
3:00 AM -2.2 °F -26.2 °F -9.4 °F 71% 29.86 in 15.0 mi South 23.0 mph 29.9 mph N/A Snow Low Drifting Snow
4:00 AM -2 °F - -8 °F 63% 29.84 in 15 mi South 31.1 mph - - Snow Low Drifting Snow
4:00 AM -2.2 °F -28.8 °F -7.6 °F 78% 29.84 in 15.0 mi South 29.9 mph 38.0 mph N/A Snow Low Drifting Snow
5:00 AM -2.2 °F -27.1 °F -9.4 °F 71% 29.84 in 15.0 mi SSE 25.3 mph 32.2 mph N/A Snow Low Drifting Snow
6:00 AM -0.4 °F -18.4 °F -7.6 °F 72% 29.84 in 15.0 mi SSE 12.7 mph 25.3 mph N/A Snow Low Drifting Snow
7:00 AM -0.4 °F -19.2 °F -5.8 °F 78% 29.85 in 15.0 mi SSE 13.8 mph - N/A Snow Low Drifting Snow
8:00 AM -0.4 °F -19.2 °F -5.8 °F 78% 29.86 in 15.0 mi South 13.8 mph - N/A Snow Low Drifting Snow
9:00 AM 1.4 °F -18.8 °F -5.8 °F 72% 29.87 in 15.0 mi South 17.3 mph - N/A Snow Low Drifting Snow
10:00 AM -0 °F - -7 °F 61% 29.88 in 15 mi South 17.3 mph - - Snow Low Drifting Snow
10:00 AM -0.4 °F -21.2 °F -7.6 °F 72% 29.88 in 15.0 mi South 17.3 mph - N/A Snow Low Drifting Snow
11:00 AM 1.4 °F -17.6 °F -5.8 °F 72% 29.89 in 15.0 mi South 15.0 mph - N/A Snow Low Drifting Snow
12:00 PM 1.4 °F -16.1 °F -5.8 °F 72% 29.90 in 20.0 mi South 12.7 mph - N/A Snow Low Drifting Snow
2:00 PM 3.2 °F -12.2 °F -4.0 °F 72% 29.92 in 20.0 mi South 10.4 mph - N/A   Mostly Cloudy
3:00 PM 5.0 °F -10.8 °F -2.2 °F 72% 29.94 in 40.0 mi South 11.5 mph - N/A   Scattered Clouds
4:00 PM 3 °F - -3 °F 67% 29.96 in 37 mi SE 4.6 mph - -   Scattered Clouds
4:00 PM 3.2 °F -6.2 °F -2.2 °F 78% 29.96 in 40.0 mi SE 4.6 mph - N/A   Scattered Clouds
5:00 PM -0.4 °F -10.4 °F -5.8 °F 78% 29.98 in 40.0 mi SE 4.6 mph - N/A   Partly Cloudy
6:00 PM -2.2 °F - -7.6 °F 78% 30.00 in 40.0 mi South 2.3 mph - N/A   Clear
7:00 PM -4.0 °F -16.3 °F -9.4 °F 78% 30.01 in 40.0 mi SSE 5.8 mph - N/A   Clear
8:00 PM -4.0 °F -14.6 °F -9.4 °F 78% 30.02 in 40.0 mi South 4.6 mph - N/A   Clear
9:00 PM -5.8 °F - -13.0 °F 71% 30.05 in 15.0 mi SSW 2.3 mph - N/A   Clear
11:00 PM -4.0 °F - -9.4 °F 78% 30.07 in 15.0 mi SSW 2.3 mph - N/A   Clear